SL-6 R/B(2)

Last updated on Sun Aug 09 2026 00:02:09 GMT+0000 (Coordinated Universal Time)

1 20666U 90055D 26220.57127781 .00000941 00000+0 80579-4 0 9995 2 20666 62.7813 97.0946 0048814 12.2355 347.9918 15.04183191961030
UTC large
Height (km)
Speed (km/s)
/
Latitude / Longitude
Inclination (degrees)
Orbital Period (minutes)
Azimuth
Elevation
Range (km)
Doppler Factor

Next 0 passes for location: London (51.5072 / 0.1276)

No passes found over London.
SL-6 R/B(2)